• en France
  • Liste des pays
  • À 7 jours
  • Température de l'eau
  • Carte satellitaire
  • Carte météo
  • Widgets météo
  • user-avatar
    Se connecter

    Météo par heure à Yopal

    Ce jour, 11 Décembre, Lundi

    Heure Température Précipitation Vent Pression Humidité
    00:00 +26°C° 0,2 mm 1 m/s 729 mmHg 83%
    01:00 +25°C° 0,2 mm 1 m/s 729 mmHg 83%
    02:00 +25°C° 0,1 mm 1 m/s 729 mmHg 83%
    03:00 +25°C° 0,1 mm 1 m/s 729 mmHg 82%
    04:00 +25°C° 0,1 mm 1 m/s 729 mmHg 82%
    05:00 +26°C° 0 mm 1 m/s 729 mmHg 79%
    06:00 +26°C° 0 mm 1 m/s 730 mmHg 77%
    07:00 +27°C° 0 mm 1 m/s 730 mmHg 74%
    08:00 +29°C° 0 mm 2 m/s 730 mmHg 68%
    09:00 +31°C° 0 mm 2 m/s 730 mmHg 63%
    10:00 +34°C° 0 mm 3 m/s 730 mmHg 57%
    11:00 +34°C° 0,2 mm 3 m/s 729 mmHg 58%
    12:00 +34°C° 0,2 mm 3 m/s 728 mmHg 59%
    13:00 +35°C° 0,2 mm 3 m/s 728 mmHg 60%
    14:00 +34°C° 0,5 mm 2 m/s 727 mmHg 62%
    15:00 +34°C° 0,5 mm 2 m/s 727 mmHg 64%
    16:00 +34°C° 0,5 mm 2 m/s 726 mmHg 66%
    17:00 +31°C° 0,4 mm 2 m/s 727 mmHg 71%
    18:00 +29°C° 0,4 mm 2 m/s 727 mmHg 76%
    19:00 +28°C° 0,4 mm 1 m/s 727 mmHg 80%
    20:00 +27°C° 0,4 mm 1 m/s 728 mmHg 83%
    21:00 +26°C° 0,4 mm 1 m/s 728 mmHg 85%
    22:00 +26°C° 0,4 mm 1 m/s 729 mmHg 87%
    23:00 +26°C° 0,5 mm 1 m/s 729 mmHg 87%

    Demain, 12 Décembre, Mardi

    Heure Température Précipitation Vent Pression Humidité
    00:00 +25°C° 0,5 mm 1 m/s 729 mmHg 87%
    01:00 +25°C° 0,5 mm 1 m/s 729 mmHg 87%
    02:00 +25°C° 0,4 mm 1 m/s 729 mmHg 87%
    03:00 +25°C° 0,4 mm 1 m/s 729 mmHg 86%
    04:00 +25°C° 0,4 mm 1 m/s 729 mmHg 85%
    05:00 +25°C° 0,1 mm 1 m/s 729 mmHg 83%
    06:00 +26°C° 0,1 mm 1 m/s 730 mmHg 81%
    07:00 +26°C° 0,1 mm 1 m/s 730 mmHg 78%
    08:00 +28°C° 0 mm 2 m/s 730 mmHg 69%
    09:00 +30°C° 0 mm 2 m/s 731 mmHg 61%
    10:00 +33°C° 0 mm 3 m/s 731 mmHg 52%
    11:00 +34°C° 0 mm 3 m/s 730 mmHg 51%
    12:00 +34°C° 0 mm 3 m/s 729 mmHg 51%
    13:00 +35°C° 0 mm 3 m/s 729 mmHg 50%
    14:00 +34°C° 0,1 mm 2 m/s 728 mmHg 52%
    15:00 +34°C° 0,1 mm 2 m/s 728 mmHg 54%
    16:00 +32°C° 0,1 mm 2 m/s 727 mmHg 55%
    17:00 +31°C° 0 mm 2 m/s 727 mmHg 61%
    18:00 +29°C° 0 mm 1 m/s 728 mmHg 67%
    19:00 +27°C° 0 mm 1 m/s 728 mmHg 72%
    20:00 +27°C° 0 mm 1 m/s 729 mmHg 73%
    21:00 +26°C° 0 mm 1 m/s 730 mmHg 73%
    22:00 +26°C° 0 mm 1 m/s 730 mmHg 74%
    23:00 +25°C° 0 mm 1 m/s 730 mmHg 74%

    Après-demain, 13 Décembre, Mercredi

    Heure Température Précipitation Vent Pression Humidité
    00:00 +25°C° 0 mm 1 m/s 730 mmHg 74%
    01:00 +25°C° 0 mm 1 m/s 729 mmHg 74%
    02:00 +25°C° 0 mm 1 m/s 729 mmHg 74%
    03:00 +24°C° 0 mm 1 m/s 729 mmHg 73%
    04:00 +24°C° 0 mm 1 m/s 729 mmHg 73%
    05:00 +25°C° 0 mm 1 m/s 730 mmHg 71%
    06:00 +25°C° 0 mm 1 m/s 730 mmHg 70%
    07:00 +26°C° 0 mm 1 m/s 731 mmHg 68%
    08:00 +28°C° 0 mm 2 m/s 731 mmHg 62%
    09:00 +30°C° 0 mm 3 m/s 732 mmHg 55%
    10:00 +34°C° 0 mm 3 m/s 732 mmHg 49%
    11:00 +34°C° 0 mm 3 m/s 731 mmHg 48%
    12:00 +34°C° 0 mm 3 m/s 730 mmHg 48%
    13:00 +35°C° 0 mm 3 m/s 730 mmHg 48%
    14:00 +34°C° 0 mm 3 m/s 729 mmHg 50%
    15:00 +34°C° 0 mm 2 m/s 729 mmHg 52%
    16:00 +34°C° 0 mm 2 m/s 728 mmHg 54%
    17:00 +31°C° 0 mm 2 m/s 728 mmHg 61%
    18:00 +29°C° 0 mm 1 m/s 729 mmHg 67%
    19:00 +27°C° 0 mm 1 m/s 729 mmHg 73%
    20:00 +27°C° 0 mm 1 m/s 730 mmHg 74%
    21:00 +26°C° 0 mm 1 m/s 730 mmHg 76%
    22:00 +26°C° 0 mm 1 m/s 731 mmHg 77%
    23:00 +26°C° 0,1 mm 1 m/s 731 mmHg 77%

    14 Décembre, Jeudi

    Heure Température Précipitation Vent Pression Humidité
    00:00 +25°C° 0,1 mm 1 m/s 730 mmHg 77%
    01:00 +25°C° 0,1 mm 1 m/s 730 mmHg 77%
    02:00 +25°C° 0 mm 1 m/s 730 mmHg 77%
    03:00 +25°C° 0 mm 1 m/s 730 mmHg 77%
    04:00 +24°C° 0 mm 1 m/s 729 mmHg 77%
    05:00 +25°C° 0 mm 1 m/s 730 mmHg 75%
    06:00 +26°C° 0 mm 1 m/s 730 mmHg 73%
    07:00 +26°C° 0 mm 1 m/s 731 mmHg 71%
    08:00 +28°C° 0 mm 2 m/s 731 mmHg 64%
    09:00 +30°C° 0 mm 2 m/s 732 mmHg 57%
    10:00 +33°C° 0 mm 3 m/s 732 mmHg 49%
    11:00 +34°C° 0 mm 3 m/s 731 mmHg 46%
    12:00 +35°C° 0 mm 3 m/s 730 mmHg 42%
    13:00 +36°C° 0 mm 3 m/s 729 mmHg 39%
    14:00 +35°C° 0 mm 3 m/s 729 mmHg 40%
    15:00 +35°C° 0 mm 3 m/s 728 mmHg 41%
    16:00 +34°C° 0 mm 2 m/s 728 mmHg 43%
    17:00 +31°C° 0 mm 2 m/s 728 mmHg 50%
    18:00 +29°C° 0 mm 2 m/s 729 mmHg 57%
    19:00 +27°C° 0 mm 1 m/s 729 mmHg 65%
    20:00 +26°C° 0 mm 1 m/s 730 mmHg 65%
    21:00 +26°C° 0 mm 1 m/s 731 mmHg 65%
    22:00 +25°C° 0 mm 1 m/s 731 mmHg 65%
    23:00 +25°C° 0 mm 1 m/s 731 mmHg 64%

    15 Décembre, Vendredi

    Heure Température Précipitation Vent Pression Humidité
    00:00 +25°C° 0 mm 1 m/s 730 mmHg 64%
    01:00 +24°C° 0 mm 1 m/s 730 mmHg 63%
    02:00 +24°C° 0 mm 1 m/s 730 mmHg 63%
    03:00 +24°C° 0 mm 1 m/s 730 mmHg 62%
    04:00 +24°C° 0 mm 1 m/s 729 mmHg 61%
    05:00 +24°C° 0,1 mm 1 m/s 730 mmHg 61%
    06:00 +25°C° 0,1 mm 1 m/s 731 mmHg 61%
    07:00 +25°C° 0,1 mm 1 m/s 731 mmHg 61%
    08:00 +28°C° 0 mm 2 m/s 731 mmHg 57%
    09:00 +30°C° 0 mm 3 m/s 731 mmHg 53%
    10:00 +34°C° 0 mm 3 m/s 732 mmHg 48%
    11:00 +34°C° 0 mm 3 m/s 731 mmHg 47%
    12:00 +35°C° 0 mm 3 m/s 730 mmHg 46%
    13:00 +36°C° 0 mm 3 m/s 729 mmHg 45%
    14:00 +35°C° 0 mm 3 m/s 728 mmHg 47%
    15:00 +35°C° 0 mm 3 m/s 728 mmHg 49%
    16:00 +34°C° 0 mm 2 m/s 727 mmHg 51%
    17:00 +31°C° 0 mm 2 m/s 728 mmHg 58%
    18:00 +30°C° 0 mm 1 m/s 728 mmHg 65%
    19:00 +28°C° 0 mm 1 m/s 729 mmHg 72%
    20:00 +27°C° 0 mm 1 m/s 729 mmHg 72%
    21:00 +27°C° 0 mm 1 m/s 730 mmHg 73%
    22:00 +26°C° 0 mm 1 m/s 730 mmHg 74%
    23:00 +26°C° 0 mm 1 m/s 730 mmHg 74%

    16 Décembre, Samedi

    Heure Température Précipitation Vent Pression Humidité
    00:00 +26°C° 0 mm 1 m/s 730 mmHg 75%
    01:00 +25°C° 0 mm 1 m/s 730 mmHg 75%
    02:00 +25°C° 0 mm 1 m/s 729 mmHg 74%
    03:00 +25°C° 0 mm 1 m/s 729 mmHg 74%
    04:00 +25°C° 0 mm 1 m/s 729 mmHg 73%
    05:00 +25°C° 0 mm 1 m/s 730 mmHg 72%
    06:00 +26°C° 0 mm 1 m/s 730 mmHg 70%
    07:00 +26°C° 0 mm 1 m/s 731 mmHg 68%
    08:00 +28°C° 0 mm 2 m/s 731 mmHg 63%
    09:00 +30°C° 0 mm 3 m/s 731 mmHg 57%
    10:00 +33°C° 0 mm 3 m/s 731 mmHg 51%
    11:00 +34°C° 0 mm 3 m/s 731 mmHg 50%
    12:00 +34°C° 0 mm 3 m/s 730 mmHg 49%
    13:00 +35°C° 0 mm 3 m/s 729 mmHg 49%
    14:00 +34°C° 0 mm 3 m/s 728 mmHg 50%
    15:00 +34°C° 0 mm 3 m/s 728 mmHg 52%
    16:00 +34°C° 0 mm 3 m/s 727 mmHg 53%
    17:00 +31°C° 0 mm 2 m/s 728 mmHg 59%
    18:00 +29°C° 0 mm 2 m/s 728 mmHg 65%
    19:00 +27°C° 0 mm 1 m/s 729 mmHg 71%
    20:00 +26°C° 0 mm 1 m/s 729 mmHg 72%
    21:00 +26°C° 0 mm 1 m/s 729 mmHg 73%
    22:00 +25°C° 0 mm 1 m/s 730 mmHg 74%
    23:00 +25°C° 0 mm 1 m/s 729 mmHg 73%
    Voir plus